• In Deutschland
  • Länderverzeichnis
  • Für 7 Tage
  • Wassertemperatur
  • Satellitenkarten
  • Wetterkarte
  • Widgets
  • user-avatar
    Anmelden

    Stündliche Wetter Wittmund

    Heute, 19 Oktober, Donnerstag

    Zeit Temperatur Niederschläge Wind Luftdruck Luftfeuchtigkeit
    00:00 +11°C° 0 mm 3 m/S 759 mmHg 92%
    01:00 +11°C° 0 mm 3 m/S 759 mmHg 92%
    02:00 +11°C° 0 mm 3 m/S 759 mmHg 92%
    03:00 +11°C° 0 mm 3 m/S 759 mmHg 92%
    04:00 +11°C° 0 mm 4 m/S 759 mmHg 92%
    05:00 +11°C° 0 mm 4 m/S 759 mmHg 92%
    06:00 +11°C° 0 mm 4 m/S 759 mmHg 92%
    07:00 +10°C° 0 mm 4 m/S 759 mmHg 93%
    08:00 +11°C° 0 mm 4 m/S 759 mmHg 90%
    09:00 +13°C° 0 mm 4 m/S 759 mmHg 87%
    10:00 +14°C° 0 mm 4 m/S 759 mmHg 84%
    11:00 +15°C° 0 mm 4 m/S 758 mmHg 82%
    12:00 +17°C° 0 mm 4 m/S 758 mmHg 80%
    13:00 +18°C° 0 mm 4 m/S 758 mmHg 78%
    14:00 +18°C° 0 mm 4 m/S 758 mmHg 80%
    15:00 +18°C° 0 mm 4 m/S 757 mmHg 81%
    16:00 +18°C° 0 mm 4 m/S 757 mmHg 82%
    17:00 +17°C° 0 mm 4 m/S 757 mmHg 85%
    18:00 +15°C° 0 mm 4 m/S 757 mmHg 88%
    19:00 +13°C° 0 mm 5 m/S 757 mmHg 91%
    20:00 +13°C° 0 mm 5 m/S 757 mmHg 90%
    21:00 +13°C° 0 mm 5 m/S 757 mmHg 90%
    22:00 +13°C° 0 mm 5 m/S 757 mmHg 89%
    23:00 +13°C° 0 mm 5 m/S 756 mmHg 89%

    Morgen, 20 Oktober, Freitag

    Zeit Temperatur Niederschläge Wind Luftdruck Luftfeuchtigkeit
    00:00 +13°C° 0 mm 5 m/S 756 mmHg 88%
    01:00 +13°C° 0 mm 5 m/S 756 mmHg 88%
    02:00 +14°C° 0 mm 5 m/S 756 mmHg 86%
    03:00 +14°C° 0 mm 5 m/S 756 mmHg 83%
    04:00 +14°C° 0 mm 6 m/S 756 mmHg 81%
    05:00 +14°C° 0,4 mm 6 m/S 756 mmHg 81%
    06:00 +14°C° 0,4 mm 6 m/S 755 mmHg 82%
    07:00 +14°C° 0,4 mm 6 m/S 755 mmHg 82%
    08:00 +14°C° 0,3 mm 7 m/S 756 mmHg 83%
    09:00 +14°C° 0,3 mm 7 m/S 756 mmHg 84%
    10:00 +15°C° 0,3 mm 7 m/S 756 mmHg 85%
    11:00 +15°C° 0,3 mm 8 m/S 756 mmHg 84%
    12:00 +15°C° 0,3 mm 8 m/S 756 mmHg 82%
    13:00 +16°C° 0,3 mm 8 m/S 756 mmHg 81%
    14:00 +15°C° 0,2 mm 7 m/S 756 mmHg 80%
    15:00 +15°C° 0,2 mm 7 m/S 756 mmHg 78%
    16:00 +15°C° 0,2 mm 6 m/S 756 mmHg 77%
    17:00 +14°C° 0,1 mm 7 m/S 756 mmHg 80%
    18:00 +12°C° 0,1 mm 7 m/S 757 mmHg 82%
    19:00 +11°C° 0,1 mm 7 m/S 757 mmHg 85%
    20:00 +11°C° 0,1 mm 7 m/S 757 mmHg 85%
    21:00 +11°C° 0,1 mm 7 m/S 758 mmHg 85%
    22:00 +11°C° 0,1 mm 7 m/S 758 mmHg 86%
    23:00 +11°C° 0,1 mm 7 m/S 758 mmHg 85%

    übermorgen, 21 Oktober, Samstag

    Zeit Temperatur Niederschläge Wind Luftdruck Luftfeuchtigkeit
    00:00 +11°C° 0,1 mm 7 m/S 758 mmHg 85%
    01:00 +10°C° 0,1 mm 6 m/S 758 mmHg 85%
    02:00 +10°C° 0 mm 6 m/S 758 mmHg 86%
    03:00 +9°C° 0 mm 6 m/S 758 mmHg 87%
    04:00 +8°C° 0 mm 6 m/S 758 mmHg 88%
    05:00 +9°C° 0 mm 6 m/S 758 mmHg 87%
    06:00 +9°C° 0 mm 6 m/S 758 mmHg 85%
    07:00 +9°C° 0 mm 6 m/S 757 mmHg 84%
    08:00 +10°C° 0 mm 6 m/S 757 mmHg 82%
    09:00 +11°C° 0 mm 7 m/S 757 mmHg 81%
    10:00 +12°C° 0 mm 8 m/S 757 mmHg 79%
    11:00 +12°C° 0,8 mm 7 m/S 756 mmHg 83%
    12:00 +12°C° 0,8 mm 7 m/S 756 mmHg 87%
    13:00 +12°C° 0,8 mm 7 m/S 756 mmHg 91%
    14:00 +12°C° 0,3 mm 7 m/S 756 mmHg 90%
    15:00 +14°C° 0,3 mm 7 m/S 756 mmHg 89%
    16:00 +14°C° 0,3 mm 6 m/S 755 mmHg 88%
    17:00 +13°C° 0,2 mm 6 m/S 755 mmHg 88%
    18:00 +13°C° 0,2 mm 6 m/S 755 mmHg 88%
    19:00 +11°C° 0,2 mm 6 m/S 755 mmHg 88%
    20:00 +11°C° 0 mm 7 m/S 756 mmHg 87%
    21:00 +10°C° 0 mm 7 m/S 756 mmHg 86%
    22:00 +10°C° 0 mm 8 m/S 756 mmHg 86%
    23:00 +10°C° 0 mm 8 m/S 756 mmHg 85%

    22 Oktober, Sonntag

    Zeit Temperatur Niederschläge Wind Luftdruck Luftfeuchtigkeit
    00:00 +9°C° 0 mm 8 m/S 756 mmHg 84%
    01:00 +8°C° 0 mm 9 m/S 756 mmHg 83%
    02:00 +8°C° 0 mm 9 m/S 756 mmHg 83%
    03:00 +7°C° 0 mm 9 m/S 755 mmHg 82%
    04:00 +7°C° 0 mm 9 m/S 755 mmHg 82%
    05:00 +7°C° 0 mm 9 m/S 755 mmHg 82%
    06:00 +7°C° 0 mm 9 m/S 755 mmHg 83%
    07:00 +7°C° 0 mm 9 m/S 755 mmHg 83%
    08:00 +8°C° 0 mm 9 m/S 755 mmHg 81%
    09:00 +8°C° 0 mm 9 m/S 755 mmHg 80%
    10:00 +10°C° 0 mm 9 m/S 756 mmHg 78%
    11:00 +10°C° 0,1 mm 9 m/S 756 mmHg 76%
    12:00 +11°C° 0,1 mm 9 m/S 756 mmHg 75%
    13:00 +11°C° 0,1 mm 9 m/S 756 mmHg 73%
    14:00 +11°C° 0,1 mm 9 m/S 756 mmHg 74%
    15:00 +11°C° 0,1 mm 9 m/S 756 mmHg 74%
    16:00 +10°C° 0,1 mm 8 m/S 756 mmHg 75%
    17:00 +10°C° 0,4 mm 8 m/S 756 mmHg 78%
    18:00 +9°C° 0,4 mm 8 m/S 756 mmHg 82%
    19:00 +9°C° 0,4 mm 8 m/S 756 mmHg 85%
    20:00 +9°C° 1,8 mm 8 m/S 756 mmHg 86%
    21:00 +9°C° 1,8 mm 8 m/S 756 mmHg 88%
    22:00 +9°C° 1,8 mm 8 m/S 757 mmHg 89%
    23:00 +8°C° 0,3 mm 7 m/S 757 mmHg 90%

    23 Oktober, Montag

    Zeit Temperatur Niederschläge Wind Luftdruck Luftfeuchtigkeit
    00:00 +6°C° 0,3 mm 7 m/S 757 mmHg 92%
    01:00 +6°C° 0,3 mm 7 m/S 757 mmHg 93%
    02:00 +6°C° 0 mm 7 m/S 757 mmHg 94%
    03:00 +7°C° 0 mm 6 m/S 757 mmHg 94%
    04:00 +7°C° 0 mm 6 m/S 758 mmHg 95%
    05:00 +7°C° 0,1 mm 6 m/S 758 mmHg 95%
    06:00 +8°C° 0,1 mm 6 m/S 758 mmHg 94%
    07:00 +8°C° 0,1 mm 6 m/S 758 mmHg 94%
    08:00 +9°C° 0,2 mm 5 m/S 759 mmHg 92%
    09:00 +10°C° 0,2 mm 5 m/S 759 mmHg 91%
    10:00 +10°C° 0,2 mm 5 m/S 760 mmHg 89%
    11:00 +12°C° 0,3 mm 5 m/S 760 mmHg 86%
    12:00 +13°C° 0,3 mm 6 m/S 760 mmHg 83%
    13:00 +14°C° 0,3 mm 6 m/S 761 mmHg 80%
    14:00 +14°C° 0,2 mm 5 m/S 761 mmHg 81%
    15:00 +13°C° 0,2 mm 5 m/S 761 mmHg 82%
    16:00 +13°C° 0,2 mm 4 m/S 762 mmHg 83%
    17:00 +12°C° 0,1 mm 4 m/S 762 mmHg 85%
    18:00 +11°C° 0,1 mm 4 m/S 762 mmHg 88%
    19:00 +10°C° 0,1 mm 4 m/S 763 mmHg 90%
    20:00 +10°C° 0 mm 4 m/S 763 mmHg 91%
    21:00 +10°C° 0 mm 4 m/S 763 mmHg 92%
    22:00 +8°C° 0 mm 4 m/S 763 mmHg 93%
    23:00 +8°C° 0 mm 4 m/S 764 mmHg 94%

    24 Oktober, Dienstag

    Zeit Temperatur Niederschläge Wind Luftdruck Luftfeuchtigkeit
    00:00 +8°C° 0 mm 4 m/S 764 mmHg 95%
    01:00 +8°C° 0 mm 4 m/S 764 mmHg 95%
    02:00 +8°C° 0 mm 4 m/S 764 mmHg 95%
    03:00 +8°C° 0 mm 4 m/S 764 mmHg 95%
    04:00 +8°C° 0 mm 4 m/S 764 mmHg 95%
    05:00 +10°C° 0,1 mm 4 m/S 764 mmHg 94%
    06:00 +10°C° 0,1 mm 4 m/S 764 mmHg 94%
    07:00 +10°C° 0,1 mm 4 m/S 764 mmHg 94%
    08:00 +10°C° 0 mm 4 m/S 765 mmHg 93%
    09:00 +11°C° 0 mm 4 m/S 765 mmHg 91%
    10:00 +11°C° 0 mm 4 m/S 765 mmHg 90%
    11:00 +12°C° 0 mm 4 m/S 766 mmHg 89%
    12:00 +13°C° 0 mm 4 m/S 766 mmHg 88%
    13:00 +14°C° 0 mm 4 m/S 766 mmHg 87%
    14:00 +14°C° 0 mm 4 m/S 766 mmHg 88%
    15:00 +14°C° 0 mm 3 m/S 766 mmHg 89%
    16:00 +14°C° 0 mm 3 m/S 766 mmHg 90%
    17:00 +14°C° 0,1 mm 4 m/S 767 mmHg 91%
    18:00 +14°C° 0,1 mm 4 m/S 767 mmHg 93%
    19:00 +13°C° 0,1 mm 4 m/S 767 mmHg 94%
    20:00 +13°C° 0,6 mm 4 m/S 767 mmHg 94%
    21:00 +13°C° 0,6 mm 5 m/S 767 mmHg 95%
    22:00 +13°C° 0,6 mm 5 m/S 767 mmHg 95%
    23:00 +13°C° 0,5 mm 5 m/S 767 mmHg 96%
    Mehr zeigen